Westhampton, NY

10:22 AM EDT on August 29, 2016 (GMT -0400)
56 South Country Road | | Change Station
Active Advisory: Coastal Hazard Statement

Elev 32 ft 40.83 °N, 72.63 °W | Updated 23 seconds ago

Mostly Cloudy
Mostly Cloudy
79.9 °F
Feels Like 83 °F
N
2.6
Wind Variable Wind from WNW
Gusts 8.0 mph

Today
High -- | Low -- °F
--% Chance of Precip.
Yesterday
High -- | Low -- °F
Precip. -- in
Pressure 30.12 in
Visibility 10.0 miles
Clouds Scattered Clouds 4900 ft
Mostly Cloudy 6000 ft
Heat Index 83 °F
Dew Point 68 °F
Humidity 68%
Rainfall 0.00 in
Snow Depth Not available.
6:15 AM 7:27 PM
Waning Crescent, 8% visible
METAR KFOK 291353Z 29007KT 10SM SCT049 BKN060 27/18 A3012 RMK AO2 SLP199 T02670183
Pressure 30.12 in
Visibility 10.0 miles
Clouds Scattered Clouds 4900 ft
Mostly Cloudy 6000 ft
Heat Index 83 °F
Dew Point 68 °F
Humidity 68%
Rainfall 0.00 in
Snow Depth Not available.
6:15 AM 7:27 PM
Waning Crescent, 8% visible
METAR KFOK 291353Z 29007KT 10SM SCT049 BKN060 27/18 A3012 RMK AO2 SLP199 T02670183

10-Day Weather Forecast

Almanac

Astronomy

Aug. 29, 2016 Rise Set
Actual Time
Civil Twilight
Nautical Twilight
Astronomical Twilight
Moon
Length of Visible Light
Length of Day
Tomorrow will be .
, % of the Moon is Illuminated

Today's Extremes

State Highs State Lows

Community

WunderPhotos

Upload Photos

1,935,826 photos uploaded!

WunderBlog® & News

Nearby

Air Quality

  Air Quality AQ Index Pollutant
Not available.

Snow Depth

Station Depth Elevation

Earthquake Activity

City Distance Mag. Time & Date
Minimum magnitude displayed is 2.5.

Coastal Water Temperatures

Place Temperature

Stations

Nearby Weather Stations

Station Location Temp. Windchill Dew Point Humidity Wind Precip. Elev Updated Type
                   

Watches & Warnings

Coastal Hazard Statement
Issued: 3:24 AM EDT Aug. 29, 2016 – National Weather Service

... High rip current risk remains in effect through this evening...

* locations... the ocean beaches of Suffolk County.

* Rip current risk... high

* surf height... around 3 feet.

* Lightning risk... none

* timing... through 800 PM EDT this evening.

Precautionary/preparedness actions...

Rip currents are powerful channels of water flowing quickly away
from shore... which occur most often at low spots or breaks in The
Sandbar and in the vicinity of structures such as groins...
jetties and piers. Talk to lifeguards and beach officials to
learn about any surf hazards and heed their advice. Pay attention
to flags and posted signs and swim in life guarded areas.

If you become caught in a rip current... Yell for help. Remain
calm... do not exhaust yourself and stay afloat while waiting for
help. If you have to swim out of a rip current... swim parallel to
shore. Once you are away from the force of the rip current...
begin to swim back toward the beach. Do not attempt to swim
directly against a rip current as you will tire quickly.